Location: Unspecified
(0.0000°N, 0.0000°E)
Time: 02:23:26
(UTC+00:00)

Transit 2A Rocket - Visible Passes

Search period start: 25 July 2016 00:00
Search period end: 04 August 2016 00:00
Orbit: 584 x 921 km, 66.7° (Epoch: 24 July)

Date Brightness Start Highest point End Pass type
(mag) Time Alt. Az. Time Alt. Az. Time Alt. Az.
25 Jul 6.0 04:21:36 32° NW 04:21:36 32° NW 04:25:26 10° N visible
26 Jul 6.7 03:41:06 27° NNE 03:41:06 27° NNE 03:43:36 10° NNE visible
27 Jul 7.8 03:00:33 13° NE 03:00:33 13° NE 03:01:08 10° NE visible
28 Jul 7.5 03:59:53 12° NNW 03:59:53 12° NNW 04:00:17 10° NNW visible
